Temperature
16 16 15 15 15 15 15 15 15 15 15 15 15 15 15 15 15 15 15 15 15 15 15 15 15 15 15 15 15 15 15 15 15 15 15 15 15 15 15 15 15 15 15
16 16 15 15 15 15 15 15 15 15 15 15 15 15 15 15 14 14 15 15 15 15 15 15 15 15 15 15 15 15 15 15 15 15 15 15 15 15 15 15 15 15 15
16 15 15 15 15 15 15 15 15 15 15 15 14 14 14 14 14 14 14 14 14 14 14 15 15 15 15 15 15 15 15 15 15 15 14 14 14 14 14 14 14 14 14
16 15 15 15 15 15 15 15 15 15 15 14 14 14 14 14 14 14 14 14 14 14 14 14 14 14 14 14 14 14 14 14 14 14 14 14 14 14 14 14 14 14 14
16 15 15 15 15 15 15 15 15 15 15 14 14 14 14 14 14 14 14 14 14 14 13 14 14 14 14 14 14 14 14 14 14 14 14 13 13 13 13 13 13 13 13
15 15 15 15 15 15 15 15 15 15 14 14 14 14 14 14 14 13 13 13 13 13 13 13 13 13 13 13 13 13 13 13 13 13 13 13 13 13 13 13 13 13 13
15 15 15 15 15 15 15 15 15 14 14 14 14 14 14 13 13 13 13 13 13 13 13 13 13 13 13 13 13 13 13 13 13 13 13 12 12 12 12 12 12 12 12
15 15 15 15 15 15 15 14 14 14 14 14 14 14 14 14 13 13 13 13 13 13 13 13 13 12 12 12 13 13 12 12 12 12 12 12 12 12 12 12 12 12 12
15 15 15 15 15 15 15 14 14 14 14 14 14 14 15 15 14 13 13 13 13 13 12 12 12 12 12 12 12 12 12 12 12 12 12 12 12 12 12 11 11 11 11
15 15 15 14 14 15 15 14 14 14 14 14 14 14 14 14 14 14 13 12 12 12 12 12 12 12 12 12 12 12 12 12 12 12 11 11 11 11 11 11 11 11 11
14 14 14 14 14 14 14 14 14 14 14 14 14 14 14 14 14 14 13 12 12 12 12 12 12 12 12 11 12 12 12 12 11 11 11 11 11 11 11 11 11 11 11
14 14 14 14 14 14 14 14 14 14 14 14 14 14 14 14 14 14 14 13 12 12 11 12 11 11 11 11 11 12 12 11 11 11 11 11 11 11 11 11 10 10 10
14 14 14 14 14 14 14 14 14 14 14 14 14 14 14 14 13 13 13 13 12 11 11 11 11 11 11 11 11 11 11 11 11 11 11 11 11 10 10 10 10 10 10
14 14 14 14 14 14 14 14 14 14 14 14 14 14 14 14 13 13 13 13 13 12 11 11 11 11 11 11 11 11 11 11 11 11 11 11 11 11 10 10 10 10 10
14 14 14 14 14 14 14 14 14 14 14 14 14 14 14 13 13 13 13 13 13 13 12 11 10 10 11 11 11 10 10 11 11 11 11 11 11 11 10 10 10 10 10
14 14 14 14 14 14 14 14 14 14 14 14 14 13 13 13 13 13 13 13 13 13 12 11 11 10 11 10 11 10 10 10 11 11 11 11 10 10 10 10 10 10 10
14 14 14 14 14 14 14 14 13 14 13 13 13 13 13 13 13 13 13 12 12 12 12 11 11 10 10 10 10 10 10 10 10 10 10 10 10 10 10 10 9 9 9
14 14 14 14 14 14 13 13 13 13 13 13 13 13 13 13 13 13 13 12 12 12 12 11 11 10 10 10 10 10 10 10 10 10 10 10 10 10 10 9 9 9 9
14 14 14 13 13 13 13 13 13 13 13 13 13 13 13 12 12 13 12 12 12 12 12 11 11 11 10 10 10 10 10 10 9 10 10 10 10 9 9 9 9 9 9
14 13 13 13 13 13 13 13 13 13 13 13 13 13 12 12 12 12 12 12 12 12 11 11 11 10 10 10 10 10 10 9 9 9 9 9 9 9 9 9 9 9 9
13 13 13 13 13 13 13 13 13 13 13 13 13 12 12 12 12 12 12 12 12 11 11 11 11 10 10 10 10 10 10 9 9 9 9 9 9 9 9 9 9 9 8
13 13 13 13 13 13 13 13 13 13 12 12 12 12 12 12 12 12 12 12 12 11 11 11 11 11 10 10 10 10 10 9 9 9 9 9 9 8 8 8 8 8 8
13 13 13 13 13 13 13 13 13 12 12 12 12 12 12 12 12 12 12 12 12 12 11 11 11 10 10 10 10 10 9 9 9 9 9 8 8 8 8 8 8 8 8
13 13 13 13 13 12 13 13 12 12 12 12 12 12 12 11 11 11 11 11 11 11 11 11 11 10 10 10 10 10 9 9 9 9 9 8 8 8 8 8 8 8 8
13 13 12 12 12 12 12 12 12 12 12 12 12 12 11 11 11 11 11 11 11 11 11 11 11 10 10 10 10 10 9 9 9 8 8 8 8 8 8 8 8 8 7
12 12 12 12 12 12 12 12 12 12 12 12 12 12 12 11 11 11 11 10 10 10 10 10 10 10 10 10 10 9 9 8 8 8 8 8 7 7 7 7 7 7 7
Wind_Speed
3 4 4 4 5 5 6 5 6 7 7 8 9 9 10 10 10 9 11 16 16 14 14 14 13 12 12 11 11 11 10 9 10 10 11 11 11 11 11 11 10 10 10
3 3 4 4 4 5 6 6 7 6 7 7 8 9 9 9 10 10 9 11 15 16 15 14 14 13 13 12 12 11 10 10 10 11 11 11 11 11 10 10 10 11 10
3 4 4 4 4 5 6 6 7 6 6 6 7 8 8 9 9 10 9 9 10 14 16 15 15 14 13 13 12 11 11 11 12 12 12 12 11 11 11 11 11 11 11
4 4 3 4 5 5 5 4 4 5 5 5 6 6 7 7 9 9 9 10 9 10 14 16 16 15 14 13 13 12 12 12 12 12 12 12 12 12 12 11 11 11 11
3 3 3 4 5 4 4 4 4 4 5 6 6 6 6 7 7 8 9 10 10 10 10 12 15 17 16 15 14 13 13 13 12 12 12 12 12 12 12 12 12 12 12
2 3 3 4 4 3 3 4 5 4 5 5 6 6 6 6 6 7 8 9 10 10 10 10 10 12 15 15 13 13 13 13 12 12 12 12 12 12 12 12 12 12 12
2 2 2 3 3 3 3 4 4 5 4 4 4 5 5 6 6 6 6 7 8 9 10 10 9 9 10 13 14 12 12 13 13 13 12 13 12 12 12 12 12 12 12
1 1 2 2 2 3 3 3 3 3 2 1 1 2 2 3 4 5 5 6 6 7 8 10 10 10 10 10 13 13 12 12 13 13 12 12 11 11 11 11 11 11 11
2 1 1 2 3 3 3 3 2 2 2 1 1 1 0 1 2 3 5 5 5 5 6 8 9 9 10 10 10 13 13 12 12 12 12 12 11 10 10 10 10 10 10
2 1 1 2 2 2 3 2 2 2 2 2 1 0 1 1 1 2 3 4 5 5 5 5 7 8 9 9 11 13 13 12 11 11 11 11 11 11 11 10 10 10 10
2 2 1 2 2 2 2 2 2 2 1 1 1 1 1 1 1 1 1 2 3 3 4 5 5 6 7 8 9 11 12 12 11 11 10 10 10 10 10 10 9 9 10
2 2 1 1 2 1 1 1 1 1 1 1 1 1 1 1 2 1 1 2 2 3 3 4 4 5 5 7 9 10 10 10 10 10 10 9 9 9 9 9 9 9 9
2 2 1 1 1 1 2 2 2 1 1 0 0 0 1 1 1 1 2 2 2 2 2 2 3 3 4 5 6 7 9 9 8 9 9 9 8 8 8 8 9 9 9
2 2 2 2 2 2 2 2 1 1 1 1 1 0 0 0 1 2 2 2 2 2 2 2 2 3 3 4 5 3 6 7 7 7 8 8 8 7 7 7 7 8 8
2 2 2 2 2 2 2 2 1 2 1 1 1 1 1 1 1 1 2 2 2 2 2 2 2 2 2 3 3 2 4 7 6 6 6 6 7 6 6 6 6 7 7
3 3 3 3 3 3 3 2 2 2 2 2 1 1 1 2 2 1 1 1 1 1 1 2 2 3 3 3 2 2 3 6 5 4 4 4 4 5 5 5 5 5 5
4 4 4 3 3 3 3 3 2 2 2 2 2 2 2 2 2 2 1 1 1 1 2 3 3 3 3 2 3 2 2 2 3 3 2 2 3 3 3 3 3 3 4
4 4 4 4 3 3 2 2 2 2 2 2 2 2 2 2 2 2 1 2 2 2 3 4 3 3 3 2 2 2 1 1 1 3 2 1 1 1 2 2 2 2 2
5 5 5 4 4 4 3 3 3 3 2 2 2 2 2 3 2 2 2 2 2 2 2 3 3 2 3 2 2 2 2 2 1 2 3 3 2 1 1 1 2 2 2
5 5 5 5 4 4 4 4 3 3 3 2 2 2 2 3 3 3 2 2 2 3 3 3 3 3 3 3 3 2 2 2 2 2 2 2 3 4 3 2 2 2 2
5 5 5 5 4 4 4 4 4 3 3 3 3 3 2 2 2 1 1 2 2 2 3 3 3 3 3 3 3 3 3 3 3 3 3 3 3 3 3 4 3 3 3
6 6 6 6 5 4 3 3 4 4 4 4 4 3 3 4 4 3 1 1 1 2 3 3 3 4 4 3 3 3 3 3 3 2 4 3 3 3 3 3 2 3 4
7 6 6 6 6 5 6 6 5 4 4 5 4 4 3 3 4 4 5 5 2 1 2 3 3 3 3 3 4 4 4 4 4 2 3 4 3 4 4 3 2 3 4
6 6 6 6 5 5 7 7 7 6 5 5 5 5 5 5 5 4 4 4 3 3 3 3 3 3 3 3 4 4 4 5 4 2 3 4 4 4 3 4 3 5 6
6 6 6 6 6 6 8 8 7 5 5 5 5 5 5 5 5 5 5 4 4 3 3 3 2 1 1 2 3 3 4 4 4 3 2 3 4 5 4 4 3 5 7
6 6 6 7 7 6 8 9 9 5 5 5 4 5 5 5 6 7 6 5 5 4 4 4 4 4 5 5 6 5 4 4 4 3 2 3 3 3 4 3 3 4 5
Wind_Direction
82 86 86 86 88 91 93 90 87 86 82 74 69 68 67 65 63 63 65 58 57 59 62 64 62 63 69 69 68 69 71 76 82 87 86 84 81 78 74 71 71 71 68
86 89 89 88 88 85 85 89 85 84 82 78 73 69 66 66 62 62 65 67 60 55 57 61 60 60 64 69 69 69 71 77 86 89 87 84 80 76 73 71 72 70 66
85 94 91 95 94 92 92 88 88 85 85 86 80 72 66 62 63 63 62 60 64 62 56 56 56 58 61 65 69 70 74 79 84 86 85 83 80 77 74 72 71 67 64
76 86 94 96 97 94 93 94 95 94 90 84 78 73 71 66 60 60 63 63 59 58 61 56 54 54 56 60 66 71 74 79 82 84 83 81 78 75 73 70 67 64 62
81 99 97 101 105 107 105 102 96 93 93 91 87 78 70 64 59 61 62 60 60 58 61 66 61 54 52 54 61 68 73 76 79 79 80 80 77 74 71 70 66 64 60
81 99 116 118 114 115 110 108 103 95 94 97 91 81 74 74 63 56 58 61 57 56 56 58 60 60 54 50 53 63 70 74 77 77 78 78 76 73 72 71 68 65 62
94 108 130 130 128 130 130 126 119 115 112 110 107 100 89 75 68 62 55 58 62 58 59 58 54 53 61 61 53 60 65 71 74 75 77 76 74 71 71 70 67 65 62
93 131 164 149 146 137 145 142 142 145 131 149 152 149 133 108 74 61 63 59 57 59 58 58 59 56 55 62 62 61 61 66 71 72 74 74 71 68 68 68 68 65 63
78 94 151 148 154 163 161 171 172 179 177 184 270 298 158 97 109 88 69 66 59 57 59 57 58 56 58 61 63 63 59 61 65 66 68 68 69 68 67 66 67 66 63
99 92 149 160 168 167 167 187 205 215 218 214 175 347 16 103 174 137 106 80 65 56 54 56 56 56 56 64 65 62 61 60 61 64 66 65 66 66 66 66 64 61 59
111 110 131 158 168 170 171 181 200 223 236 264 245 178 141 149 204 182 145 117 92 69 55 53 55 55 57 63 66 65 63 60 61 64 64 63 62 61 63 63 60 59 57
127 116 112 152 165 168 176 180 196 189 230 267 275 224 209 210 189 181 176 161 128 99 72 57 54 56 61 67 68 69 67 64 63 63 63 61 59 57 59 60 59 59 56
152 136 139 150 146 157 170 172 171 156 163 183 259 280 264 274 214 192 176 163 154 138 116 90 65 62 67 75 77 80 76 69 65 64 62 59 55 52 52 53 55 54 51
161 152 157 134 129 136 144 142 152 134 129 130 91 101 161 149 163 168 180 173 174 162 151 117 96 68 66 78 76 84 87 78 70 68 64 59 55 51 49 50 49 48 46
162 164 163 147 135 138 139 133 134 129 123 128 130 127 128 124 145 165 183 212 231 194 159 148 148 111 92 78 74 92 91 88 80 73 67 61 57 53 51 54 51 46 43
170 169 168 155 145 140 144 136 129 108 117 100 89 126 119 124 123 148 180 211 246 232 152 137 149 145 126 116 101 91 86 98 88 83 74 67 60 53 51 51 47 42 41
180 178 175 170 158 150 152 154 151 135 131 132 132 119 115 121 141 142 151 161 168 166 158 143 145 152 157 160 134 130 118 122 107 110 92 74 61 51 48 42 36 33 30
186 189 182 180 171 166 164 165 163 164 164 153 139 137 134 126 135 149 157 156 149 166 175 163 165 171 178 177 178 181 181 166 129 122 135 110 66 41 35 23 11 4 1
189 192 192 189 189 183 175 182 186 186 183 181 170 159 156 155 155 139 159 161 151 152 168 175 171 173 192 195 196 204 207 215 221 171 175 191 198 233 308 332 339 333 334
193 196 197 195 197 198 195 194 192 191 190 183 179 176 174 172 170 151 154 159 158 158 165 177 180 186 195 203 215 220 219 212 233 228 207 211 201 209 226 261 295 304 305
201 196 200 199 199 205 207 202 197 194 190 183 188 186 165 112 59 107 157 163 169 178 181 189 193 196 204 206 222 228 235 241 235 238 244 238 230 238 230 229 250 278 282
202 196 202 204 202 209 176 215 232 199 200 195 193 189 172 170 155 152 128 45 331 211 207 208 214 217 222 221 227 236 237 244 249 230 251 254 246 254 259 264 254 248 262
202 203 207 208 210 196 174 195 224 223 215 208 201 196 186 178 183 182 167 172 187 246 275 255 232 237 242 232 227 235 240 251 263 270 259 258 251 257 259 261 225 234 250
200 208 212 210 211 196 181 190 201 220 222 215 212 211 205 201 201 204 199 198 206 202 211 227 240 251 260 249 236 244 250 253 253 247 253 262 264 264 265 263 212 227 244
202 206 208 208 209 200 188 194 202 213 220 219 214 214 217 213 167 190 209 213 219 217 189 213 282 282 293 267 253 238 235 241 252 245 236 263 275 275 261 252 238 217 231
206 207 209 213 214 211 186 195 210 211 217 218 216 212 213 217 179 192 212 218 225 230 222 204 212 223 229 217 219 232 239 242 253 251 223 242 265 277 271 249 260 258 251
Height
1557 1557 1556 1556 1556 1556 1556 1556 1557 1556 1556 1556 1556 1555 1555 1554 1554 1553 1553 1552 1552 1551 1551 1550 1549 1549 1548 1548 1547 1546 1545 1545 1544 1544 1544 1544 1545 1545 1545 1545 1545 1545 1544
1559 1558 1558 1557 1557 1557 1557 1558 1558 1557 1557 1557 1557 1556 1556 1556 1556 1555 1555 1554 1553 1552 1552 1552 1551 1550 1550 1549 1548 1547 1546 1545 1545 1545 1545 1545 1546 1546 1545 1545 1545 1545 1544
1560 1560 1559 1559 1558 1559 1559 1559 1559 1559 1558 1558 1558 1558 1558 1558 1557 1557 1556 1556 1555 1554 1553 1553 1552 1552 1551 1550 1549 1548 1547 1546 1546 1546 1546 1546 1546 1546 1546 1546 1545 1545 1544
1561 1561 1561 1560 1560 1560 1560 1560 1560 1560 1560 1560 1560 1560 1560 1559 1559 1559 1558 1557 1556 1556 1555 1554 1553 1553 1552 1551 1550 1549 1548 1548 1548 1548 1548 1548 1547 1547 1547 1546 1546 1545 1545
1562 1562 1562 1562 1562 1562 1562 1562 1562 1562 1561 1561 1561 1561 1561 1561 1560 1560 1560 1559 1558 1557 1556 1555 1555 1554 1553 1552 1551 1551 1550 1549 1549 1549 1549 1549 1548 1548 1547 1547 1546 1546 1545
1563 1563 1563 1563 1563 1563 1563 1563 1562 1562 1562 1562 1563 1563 1563 1562 1562 1561 1561 1560 1559 1559 1558 1557 1557 1555 1554 1553 1553 1552 1552 1551 1550 1550 1550 1550 1550 1549 1548 1548 1547 1547 1546
1563 1563 1563 1563 1563 1563 1563 1564 1564 1563 1564 1564 1564 1564 1564 1564 1564 1563 1562 1562 1561 1560 1559 1558 1558 1557 1556 1554 1553 1553 1553 1552 1552 1552 1552 1551 1551 1550 1549 1549 1548 1547 1546
1563 1563 1563 1563 1563 1563 1563 1564 1564 1564 1564 1564 1565 1565 1566 1567 1565 1565 1564 1563 1562 1561 1561 1560 1559 1558 1557 1556 1554 1554 1554 1554 1553 1553 1553 1552 1552 1551 1550 1550 1549 1548 1547
1562 1563 1563 1563 1563 1563 1564 1564 1564 1564 1565 1565 1565 1566 1566 1566 1566 1566 1565 1564 1563 1562 1562 1561 1560 1559 1558 1557 1556 1555 1555 1555 1555 1554 1554 1553 1552 1552 1551 1550 1549 1548 1547
1562 1562 1562 1563 1563 1563 1563 1564 1564 1564 1565 1565 1565 1564 1565 1565 1566 1567 1567 1565 1564 1563 1563 1562 1561 1561 1560 1558 1557 1557 1556 1556 1555 1555 1554 1554 1553 1552 1552 1551 1550 1549 1548
1562 1562 1562 1562 1563 1563 1563 1563 1563 1564 1564 1564 1565 1564 1564 1564 1565 1566 1566 1566 1566 1564 1563 1563 1562 1561 1561 1560 1559 1558 1557 1557 1556 1556 1555 1554 1554 1553 1552 1551 1550 1549 1548
1561 1562 1562 1562 1562 1563 1563 1563 1563 1563 1563 1563 1564 1564 1564 1564 1565 1565 1565 1566 1566 1565 1564 1563 1562 1562 1561 1560 1560 1559 1558 1557 1557 1556 1555 1554 1554 1553 1552 1551 1550 1549 1548
1561 1561 1561 1561 1562 1562 1562 1562 1562 1562 1563 1563 1563 1563 1563 1563 1564 1564 1565 1565 1565 1565 1564 1564 1563 1562 1562 1561 1560 1559 1559 1558 1557 1556 1555 1554 1554 1553 1552 1551 1550 1549 1548
1560 1560 1560 1561 1561 1561 1561 1561 1562 1561 1562 1562 1562 1562 1562 1562 1562 1563 1564 1564 1565 1565 1565 1564 1563 1562 1562 1561 1561 1560 1559 1558 1557 1556 1556 1555 1554 1553 1552 1551 1550 1549 1547
1560 1560 1560 1560 1560 1560 1561 1561 1561 1561 1561 1561 1561 1561 1561 1561 1561 1562 1562 1563 1565 1564 1565 1564 1563 1562 1562 1561 1561 1561 1560 1558 1557 1556 1555 1554 1553 1552 1551 1550 1549 1548 1547
1559 1559 1559 1559 1560 1560 1560 1560 1560 1560 1560 1560 1560 1560 1560 1560 1560 1560 1561 1561 1562 1563 1563 1563 1562 1562 1561 1561 1560 1560 1559 1558 1557 1556 1555 1554 1553 1552 1551 1550 1549 1548 1546
1557 1558 1558 1558 1559 1559 1559 1559 1559 1559 1559 1559 1559 1559 1559 1559 1560 1560 1560 1560 1560 1561 1561 1561 1561 1561 1561 1560 1560 1559 1559 1558 1557 1556 1555 1554 1553 1552 1551 1549 1548 1547 1546
1556 1557 1557 1557 1557 1557 1558 1558 1558 1558 1558 1558 1558 1558 1559 1558 1558 1559 1559 1559 1559 1559 1560 1560 1560 1560 1560 1560 1559 1558 1558 1557 1557 1555 1554 1553 1552 1551 1550 1549 1548 1547 1545
1554 1554 1555 1556 1556 1556 1556 1556 1557 1557 1557 1557 1557 1557 1558 1558 1558 1558 1557 1558 1558 1558 1558 1559 1559 1559 1559 1559 1558 1558 1557 1556 1556 1555 1554 1552 1551 1550 1549 1548 1547 1546 1545
1552 1552 1553 1553 1554 1554 1555 1555 1555 1555 1555 1556 1556 1556 1556 1557 1557 1557 1556 1557 1557 1557 1557 1558 1558 1558 1558 1557 1557 1557 1557 1556 1555 1554 1553 1552 1550 1549 1548 1547 1546 1544 1543
1549 1550 1550 1551 1552 1552 1553 1553 1553 1554 1554 1554 1554 1555 1555 1555 1555 1555 1555 1555 1555 1555 1556 1556 1556 1556 1556 1556 1556 1555 1555 1555 1554 1553 1552 1551 1549 1548 1547 1545 1544 1543 1541
1546 1547 1548 1549 1549 1550 1550 1551 1551 1552 1552 1553 1553 1553 1553 1553 1553 1553 1553 1554 1554 1554 1555 1555 1555 1555 1555 1554 1554 1553 1553 1553 1552 1551 1550 1549 1548 1546 1545 1543 1542 1540 1539
1543 1544 1545 1546 1547 1547 1548 1548 1549 1550 1550 1551 1551 1551 1551 1551 1551 1551 1551 1551 1552 1552 1552 1553 1552 1552 1552 1552 1551 1551 1551 1550 1550 1549 1547 1546 1545 1544 1543 1541 1539 1538 1536
1540 1541 1542 1543 1544 1544 1545 1546 1546 1547 1547 1548 1548 1549 1549 1549 1549 1549 1549 1549 1549 1549 1549 1549 1549 1549 1549 1549 1549 1549 1548 1547 1547 1546 1545 1544 1543 1541 1540 1538 1536 1535 1533
1537 1538 1539 1540 1540 1541 1542 1542 1543 1544 1544 1545 1545 1546 1546 1546 1546 1547 1547 1547 1547 1546 1546 1546 1546 1546 1545 1545 1545 1545 1545 1545 1544 1543 1541 1540 1539 1538 1536 1535 1533 1531 1529
1533 1534 1535 1536 1537 1538 1538 1539 1540 1540 1541 1541 1542 1542 1543 1543 1543 1544 1544 1544 1543 1543 1543 1542 1542 1542 1542 1542 1541 1541 1541 1541 1540 1540 1538 1537 1536 1535 1534 1532 1530 1528 1526